Location: Aigremont
(47.7188°N, 3.8925°E)
Time: 22:22:42
(UTC+00:00)

Cosmos 1238 - Pass Details

Date: 18 February 2020
Orbit: 392 x 1426 km, 83.0° (Epoch: 05 April)

Event Time Altitude Azimuth Distance (km) Brightness Sun altitude
Rises 05:00:55 0° 181° (S) 2,340 8.0 -18.4°
Reaches altitude 10° 05:02:56 10° 179° (S) 1,444 7.0 -18.0°
Maximum altitude 05:05:56 65° 97° (E) 438 4.5 -17.5°
Drops below altitude 10° 05:09:01 10° 14° (NNE) 1,483 7.2 -17.0°
Sets 05:11:07 0° 12° (NNE) 2,413 8.3 -16.6°
